Regional Weather Roundup
Issued by NWS Jackson, KY

Home | Current Version | Previous Version | Text Only | Print | Product List | Glossary Off
Versions: 1 2 3 4 5 6 7 8 9 10 11 12 13 14 15 16 17 18 19 20 21 22 23 24 25 26 27 28 29 30 31 32 33 34 35 36 37 38 39 40 41 42 43 44 45 46 47 48 49 50

000
ASUS43 KJKL 230710
RWRJKL

EAST KENTUCKY HOURLY WEATHER ROUNDUP
NATIONAL WEATHER SERVICE JACKSON KY
300 AM EDT SAT MAY 23 2015

NOTE: "FAIR" INDICATES FEW OR NO CLOUDS BELOW 12,000 FEET WITH
NO SIGNIFICANT WEATHER AND/OR OBSTRUCTIONS TO VISIBILITY.

* THESE REPORTS ARE NOT UNDER NWS QUALITY CONTROL AND MAY NOT
  REPORT WEATHER SUCH AS PRECIPITATION AND FOG.

KYZ079-080-083-085-087-088-110-112-115-119-120-230800
...EASTERN KENTUCKY...

CITY           SKY/WX    TMP DP  RH WIND       PRES   REMARKS
JACKSON        PTCLDY    54  46  74 CALM      30.32S
LONDON         PTCLDY    50  44  80 CALM      30.31F
SOMERSET*      CLEAR     48  46  93 CALM      30.32S
MONTICELLO*    PTCLDY    49  49 100 CALM      30.33S
MIDDLESBORO*   PTCLDY    46  46  99 CALM      30.34S
HARLAN APT*    PTSUNNY   46  46 100 CALM      30.34F
HAZARD APT*    SUNNY     48  48 100 CALM      30.32S
BLACK MTN*       N/A     52  34  50 CALM        N/A
PIKEVILLE APT* CLEAR     54  45  71 S6        30.32F
BIG SANDY*     SUNNY     54  47  78 S5        30.32S
MOREHEAD APT*  PTSUNNY   54  46  76 CALM      30.33R
$$

KYZ035-036-041-042-044-050-067-078-099-230800
...CENTRAL KENTUCKY...

CITY           SKY/WX    TMP DP  RH WIND       PRES   REMARKS
MT STERLING*   CLEAR     46  46 100 SW5       30.32S
FLEMING/MASON* CLEAR     52  46  82 CALM      30.32R
DANVILLE*      CLEAR     48  45  87 CALM      30.32S
RICHMOND*      CLEAR     50  46  87 SE3       30.30S
LEXINGTON      CLEAR     55  45  68 S3        30.30F
FRANKFORT      CLEAR     51  46  83 CALM      30.29S
$$

KYZ091>093-OHZ055-061-077-WVZ005-015-034-035-042-230800
...SOUTHERN OHIO/WEST VIRGINIA...

CITY           SKY/WX    TMP DP  RH WIND       PRES   REMARKS
COVINGTON      PTCLDY    51  47  86 CALM      30.29S
COLUMBUS       PTCLDY    51  34  52 E6        30.30F
DAYTON         PTCLDY    53  37  54 E7        30.31S
WILMINGTON     CLEAR     54  39  57 E6        30.30S
HUNTINGTON     CLEAR     50  46  86 CALM      30.30R
CHARLESTON     CLEAR     51  48  89 S7        30.31R
PINEVILLE*     CLEAR     45  45 100 MISG      30.40R
BECKLEY        CLEAR     50  41  71 S7        30.34R
BLUEFIELD      PTCLDY    51  40  65 W7        30.36R
$$

VAZ002-007-008-TNZ017-027-036-066-071-230800
...SOUTHWEST VIRGINIA/EAST TENNESSEE...

CITY           SKY/WX    TMP DP  RH WIND       PRES   REMARKS
WISE*          MOCLDY    52  37  58 CALM      30.37R
JONESVILLE*    PTSUNNY   46  46 100 CALM      30.34F
ABINGDON*      MOCLDY    51  44  77 E3        30.35R
BRISTOL        MOCLDY    47  45  93 NE3       30.33S
KNOXVILLE      PTCLDY    53  47  79 NE3       30.29R
OAK RIDGE      PTCLDY    52  47  83 NE3       30.31S
CROSSVILLE     PTCLDY    50  45  83 CALM      30.30F
NASHVILLE      PTCLDY    53  50  89 CALM      30.28R
$$

...KEY TO REMARKS...
VSB - VISIBILITY IN MILES
WCI - WIND CHILL INDEX
HX  - HEAT INDEX

$$


USA.gov is the U.S. government's official web portal to all federal, state and local government web resources and services.